GSAT-30

Last updated on Jan. 21, 2021, 6:16 a.m. UTC

1 45026U 20005A   21020.92729881 -.00000156  00000-0  00000+0 0  9997
2 45026   0.1013 272.9586 0000822 191.5215  72.8151  1.00274896  3744
UTC
Height (km)
Latitude
Longitude
Inclination
Orbital Period
UTC large
Height (km)
Speed (km/s)
/
Latitude / Longitude
Inclination (degrees)
Orbital Period (minutes)
Azimuth
Elevation
Range (km)
Doppler Factor
iOS Compass Heading
iOS Angle

Next 30 passes for location: Hong Kong

Rise time Rise Azimuth (degrees) Set time Set Azimuth (degrees) Duration Max altitude (degrees)

No matching passes for this satellites